Regional Weather Roundup
Issued by NWS

Home | Current Version | Previous Version | Graphics & Text | Print | Product List | Glossary On
Versions: 1 2 3 4 5 6 7 8 9 10 11 12 13 14 15 16 17 18 19 20 21 22 23 24 25 26 27 28 29 30 31 32 33 34 35 36 37 38 39 40 41 42 43 44 45 46 47 48 49 50
000
ASUS45 KBOI 210310
RWRID
WEATHER ROUNDUP FOR IDAHO
NATIONAL WEATHER SERVICE BOISE ID
900 PM MDT WED AUG 20 2014

NOTE: "FAIR" INDICATES FEW OR NO CLOUDS BELOW 12000 FEET
WITH NO SIGNIFICANT WEATHER AND/OR OBSTRUCTIONS TO VISIBILITY

IDZ012-014-210400-
SOUTHWEST IDAHO


CITY           SKY/WX    TMP DP  RH WIND       PRES   REMARKS
BOISE          MOCLDY    80  47  31 CALM      29.78S
CALDWELL       MOCLDY    75  50  41 N12       29.80R
MOUNTAIN HOME  LGT RAIN  80  49  33 E8        29.81R
$$

IDZ016-017-210400-
SOUTHCENTRAL IDAHO


CITY           SKY/WX    TMP DP  RH WIND       PRES   REMARKS
BURLEY         CLOUDY    65  56  72 CALM      29.90R
JEROME         CLOUDY    71  54  54 SE7       29.88R
TWIN FALLS     CLOUDY    71  52  50 S10       29.88S
$$

IDZ019>023-210400-
SOUTHEAST IDAHO


CITY           SKY/WX    TMP DP  RH WIND       PRES   REMARKS
IDAHO FALLS    CLOUDY    63  53  70 SE7       29.99F
POCATELLO      CLEAR     65  52  62 CALM      29.94R
REXBURG        RAIN      58  52  80 SE8       30.02R
$$

IDZ006-010-011-018-031-032-210400-
CENTRAL IDAHO MOUNTAINS


CITY           SKY/WX    TMP DP  RH WIND       PRES   REMARKS
MCCALL         CLOUDY    61  48  62 VRB3      29.94R
HAILEY         MOCLDY    72  41  33 S8        29.95S
STANLEY          N/A     58  42  55 CALM      30.03R
SALMON         CLOUDY    61  52  72 CALM      29.95R
CHALLIS        CLOUDY    61  51  70 N5        29.98R
$$

IDZ002-004-006-007-026-210400-
NORTHERN IDAHO


CITY           SKY/WX    TMP DP  RH WIND       PRES   REMARKS
LEWISTON       PTCLDY    77  42  28 NW5       29.81R
LOWELL           N/A     70  60  70 N3        29.79R
COEUR D`ALENE  CLOUDY    66  54  63 NE13G20   29.85R
MULLAN PASS    CLEAR     52  45  77 VRB3      30.01S
$$


USA.gov is the U.S. government's official web portal to all federal, state and local government web resources and services.